FW2709 Weather Reports


time (UTC)temp
F
wind
direction
speed
knots
gust
knots
rain 1hr
in
rain 24hr
in
rain mn
in
humidity
%
barometer
mb
20260906220122 75 354 5.2 0.0 0.00 0.00 0.00 33 1001.8
20260906214610 74 0 6.1 0.0 0.00 0.00 0.00 33 1001.8
20260906213012 76 275 7.0 0.0 0.00 0.00 0.00 33 1001.5
20260906211534 76 316 6.1 0.0 0.00 0.00 0.00 33 1001.5
20260906210031 77 277 6.1 0.0 0.00 0.00 0.00 30 1001.6
20260906204544 79 219 5.2 0.0 0.00 0.00 0.00 30 1000.6
20260906203057 77 295 5.2 0.0 0.00 0.00 0.00 30 1000.9
20260906201611 76 291 5.2 0.0 0.00 0.00 0.00 31 1001.4
20260906200056 77 263 7.0 0.0 0.00 0.00 0.00 31 1000.3
20260906194505 77 254 5.2 0.0 0.00 0.00 0.00 30 1001.5
20260906193025 77 251 5.2 0.0 0.00 0.00 0.00 30 1001.5
20260906191540 77 296 6.1 0.0 0.00 0.00 0.00 30 1001.0
20260906190025 78 247 4.3 0.0 0.00 0.00 0.00 31 1000.9
20260906184541 77 256 5.2 0.0 0.00 0.00 0.00 32 1001.1
20260906183106 76 292 5.2 0.0 0.00 0.00 0.00 32 1002.2
20260906181515 78 288 5.2 0.0 0.00 0.00 0.00 30 1001.0
20260906180107 78 200 3.5 0.0 0.00 0.00 0.00 29 1000.8
20260906174515 78 260 4.3 0.0 0.00 0.00 0.00 29 1001.9
20260906173032 76 260 4.3 0.0 0.00 0.00 0.00 29 1001.9
20260906171604 75 299 3.5 0.0 0.00 0.00 0.00 29 1002.5
20260906170049 79 136 2.6 0.0 0.00 0.00 0.00 27 1001.6
20260906164559 79 130 3.5 0.0 0.00 0.00 0.00 26 1001.5
20260906163106 79 35 2.6 0.0 0.00 0.00 0.00 28 1001.7
20260906161506 77 73 2.6 0.0 0.00 0.00 0.00 28 1002.8
20260906160058 76 3 2.6 0.0 0.00 0.00 0.00 29 1002.8
20260906154610 75 47 1.7 0.0 0.00 0.00 0.00 30 1003.2
20260906153007 73 66 1.7 0.0 0.00 0.00 0.00 31 1004.1
20260906151511 72 56 1.7 0.0 0.00 0.00 0.00 34 1004.1
20260906150110 70 86 0.9 0.0 0.00 0.00 0.00 34 1003.7
20260906144503 68 223 0.9 0.0 0.00 0.00 0.00 40 1004.8
20260906143023 67 301 0.9 0.0 0.00 0.00 0.00 41 1004.8
20260906141532 65 265 0.0 0.0 0.00 0.00 0.00 49 1005.0
20260906140110 63 264 0.0 0.0 0.00 0.00 0.00 49 1005.1
20260906134506 60 263 0.0 0.0 0.00 0.00 0.00 55 1007.1
20260906133026 55 263 0.0 0.0 0.00 0.00 0.00 56 1007.1
20260906131540 54 263 0.9 0.0 0.00 0.00 0.00 57 1007.0
20260906130034 54 263 0.0 0.0 0.00 0.00 0.00 58 1006.9
20260906124546 54 263 0.0 0.0 0.00 0.00 0.00 56 1006.4
20260906123104 55 263 0.0 0.0 0.00 0.00 0.00 56 1006.3
20260906121511 54 263 0.0 0.0 0.00 0.00 0.00 59 1005.5
20260906120108 54 263 0.0 0.0 0.00 0.00 0.00 57 1005.5
20260906114534 54 263 0.0 0.0 0.00 0.00 0.00 59 1005.2
20260906113040 53 263 0.0 0.0 0.00 0.00 0.00 59 1005.3
20260906111602 53 263 0.0 0.0 0.00 0.00 0.00 60 1005.5
20260906110043 53 263 0.0 0.0 0.00 0.00 0.00 59 1005.3
20260906104613 54 263 0.0 0.0 0.00 0.00 0.00 59 1005.2
20260906103004 54 263 0.0 0.0 0.00 0.00 0.00 58 1005.2
20260906101530 54 263 0.0 0.0 0.00 0.00 0.00 58 1005.2
20260906100004 54 263 0.0 0.0 0.00 0.00 0.00 59 1003.9
20260906094528 54 263 0.0 0.0 0.00 0.00 0.00 59 1003.9
20260906093038 55 263 0.0 0.0 0.00 0.00 0.00 57 1003.7
20260906091555 55 263 0.0 0.0 0.00 0.00 0.00 57 1003.8
20260906090043 56 263 0.0 0.0 0.00 0.00 0.00 55 1003.7
20260906084550 56 263 0.0 0.0 0.00 0.00 0.00 55 1003.0
20260906083103 57 263 0.0 0.0 0.00 0.00 0.00 53 1003.1
20260906081534 58 263 0.9 0.0 0.00 0.00 0.00 51 1003.0
20260906080112 58 263 0.0 0.0 0.00 0.00 0.00 53 1003.0
20260906074519 58 263 0.0 0.0 0.00 0.00 0.00 54 1003.0
20260906073035 58 263 0.0 0.0 0.00 0.00 0.00 53 1003.0
20260906071550 58 263 0.0 0.0 0.00 0.00 0.00 53 1002.9
20260906070032 59 263 0.0 0.0 0.00 0.00 0.00 53 1003.3
20260906064554 59 263 0.0 0.0 0.00 0.00 0.00 52 1003.5
20260906063104 60 263 0.0 0.0 0.00 0.00 0.00 52 1003.7
20260906061507 60 261 0.0 0.0 0.00 0.00 0.00 52 1002.1
20260906060104 60 261 0.0 0.0 0.00 0.00 0.00 51 1002.1
20260906054501 59 261 0.0 0.0 0.00 0.00 0.00 53 1002.2
20260906053018 60 261 0.0 0.0 0.00 0.00 0.00 52 1002.2
20260906051533 60 208 0.0 0.0 0.00 0.00 0.00 49 1002.1
20260906050011 60 208 0.0 0.0 0.00 0.00 0.00 49 1001.8
20260906044530 60 208 0.0 0.0 0.00 0.00 0.00 49 1001.8
20260906043057 59 208 0.0 0.0 0.00 0.00 0.00 51 1001.9
20260906041510 59 208 0.0 0.0 0.00 0.00 0.00 51 1002.8
20260906040004 59 208 0.0 0.0 0.00 0.00 0.00 50 1003.0
20260906034541 59 208 0.0 0.0 0.00 0.00 0.00 50 1003.0
20260906033058 60 208 0.0 0.0 0.00 0.00 0.00 49 1002.5
20260906031514 61 208 0.0 0.0 0.00 0.00 0.00 47 1002.4
20260906030007 62 208 0.9 0.0 0.00 0.00 0.00 47 1002.2
20260906024553 63 208 0.9 0.0 0.00 0.00 0.00 46 1002.2
20260906023010 64 208 0.9 0.0 0.00 0.00 0.00 44 1001.5
20260906021538 64 208 0.0 0.0 0.00 0.00 0.00 47 1001.5
20260906020048 64 208 0.0 0.0 0.00 0.00 0.00 46 1003.1
20260906014601 65 208 0.0 0.0 0.00 0.00 0.00 45 1003.1
20260906013011 65 137 0.0 0.0 0.00 0.00 0.00 47 1003.0
20260906011541 66 92 0.0 0.0 0.00 0.00 0.00 48 1003.0
20260906010037 66 107 0.9 0.0 0.00 0.00 0.00 46 1003.8
20260906004558 67 192 0.9 0.0 0.00 0.00 0.00 42 1003.8
20260906003020 69 165 0.9 0.0 0.00 0.00 0.00 40 1003.8
20260906001532 70 64 0.0 0.0 0.00 0.00 0.00 37 1003.8
20260906000018 71 69 0.9 0.0 0.00 0.00 0.00 36 1003.5
20260905234601 72 82 0.9 0.0 0.00 0.00 0.00 33 1003.2
20260905233018 73 58 1.7 0.0 0.00 0.00 0.00 33 1003.0
20260905231544 72 176 0.9 0.0 0.00 0.00 0.00 33 1003.1
20260905230037 72 185 3.5 0.0 0.00 0.00 0.00 28 1004.0
20260905224601 72 195 7.0 0.0 0.00 0.00 0.00 28 1003.8
20260905223015 76 179 3.5 0.0 0.00 0.00 0.00 27 1001.9
20260905221547 77 143 4.3 0.0 0.00 0.00 0.00 26 1001.9